IZ1UKX-13 Weather Reports


time (UTC)temp
C
wind
direction
speed
KPH
gust
KPH
rain 1hr
cm
rain 24hr
cm
rain mn
cm
humidity
%
barometer
mb
20260506044718 11 90 3.2 3.2 0.13 1.93 0.00 97 1024.9
20260506044217 11 90 0.0 0.0 0.13 1.93 0.00 97 1024.9
20260506043717 11 90 0.0 0.0 0.13 1.93 0.00 96 1024.9
20260506043217 11 90 1.6 3.2 0.13 1.93 0.00 96 1024.9
20260506042718 11 90 3.2 3.2 0.13 1.93 0.00 96 1024.9
20260506042217 11 90 0.0 3.2 0.08 1.88 0.00 96 1024.9
20260506041717 10 90 1.6 0.0 0.05 1.83 0.00 96 1024.9
20260506041217 10 90 6.4 6.4 0.05 1.83 0.00 96 1024.9
20260506040717 10 113 3.2 3.2 0.00 1.80 0.00 96 1024.9
20260506040217 10 135 0.0 0.0 0.00 1.80 0.00 96 1024.9
20260506035717 10 135 3.2 6.4 0.00 1.80 0.00 96 1024.9
20260506035217 10 158 0.0 0.0 0.00 1.80 0.00 96 1024.9
20260506034718 10 158 0.0 0.0 0.00 1.80 0.00 96 1024.9
20260506034217 11 158 1.6 3.2 0.00 1.80 0.00 96 1024.9
20260506033717 11 158 1.6 3.2 0.00 1.80 0.00 95 1024.9
20260506033217 11 158 1.6 3.2 0.00 1.80 0.00 96 1024.9
20260506032717 11 113 1.6 0.0 0.00 1.80 0.00 96 1024.9
20260506032217 11 158 3.2 3.2 0.00 1.80 0.00 96 1024.9
20260506031718 11 158 1.6 0.0 0.00 1.80 0.00 97 1024.9
20260506031218 11 158 0.0 0.0 0.00 1.80 0.00 97 1024.9
20260506030717 11 158 0.0 0.0 0.00 1.80 0.00 97 1024.9
20260506030217 11 158 0.0 0.0 0.00 1.80 0.00 97 1024.5
20260506025717 11 158 0.0 0.0 0.23 1.80 0.00 97 1024.5
20260506025217 11 158 0.0 0.0 0.20 1.75 0.00 97 1024.9
20260506024717 11 158 0.0 0.0 0.20 1.75 0.00 97 1024.9
20260506024218 11 158 0.0 0.0 0.20 1.75 0.00 97 1024.9
20260506023717 11 158 0.0 0.0 0.20 1.75 0.00 97 1024.9
20260506023217 11 158 0.0 0.0 0.20 1.75 0.00 97 1024.5
20260506022717 11 158 0.0 0.0 0.20 1.75 0.00 97 1024.5
20260506022217 11 158 0.0 0.0 0.15 1.73 0.00 97 1024.5
20260506021717 11 158 0.0 0.0 0.13 1.68 0.00 97 1024.5
20260506021218 11 158 0.0 0.0 0.13 1.68 0.00 97 1024.5
20260506020717 11 158 0.0 0.0 0.08 1.65 0.00 97 1024.5
20260506020218 11 158 0.0 0.0 0.00 1.55 0.00 97 1024.5
20260506015717 11 158 0.0 0.0 1.12 1.52 0.00 97 1024.5
20260506015217 11 158 0.0 0.0 1.04 1.45 0.00 97 1024.5
20260506014718 11 158 0.0 0.0 0.97 1.37 0.00 97 1024.5
20260506014217 11 158 0.0 0.0 0.76 1.17 0.00 97 1024.5
20260506013717 11 158 1.6 0.0 0.64 1.04 0.00 97 1024.5
20260506013218 11 158 0.0 0.0 0.48 0.89 0.00 97 1024.5
20260506012717 11 158 1.6 3.2 0.48 0.89 0.00 97 1024.5
20260506012217 11 158 0.0 0.0 0.43 0.84 0.00 97 1024.5
20260506011717 11 158 0.0 0.0 0.41 0.79 0.00 97 1024.5
20260506011217 11 158 0.0 0.0 0.23 0.64 0.00 97 1024.5
20260506010718 11 158 0.0 0.0 0.13 0.51 0.00 97 1024.5
20260506010217 11 158 0.0 0.0 0.05 0.43 0.00 96 1024.5
20260506005717 11 158 0.0 0.0 0.15 0.33 0.00 96 1024.5
20260506005217 11 158 0.0 0.0 0.13 0.28 0.00 96 1024.5
20260506004717 11 158 0.0 0.0 0.08 0.23 0.00 96 1024.5
20260506004218 11 158 0.0 0.0 0.00 0.15 0.00 96 1024.5
20260506003717 11 158 0.0 0.0 0.00 0.15 0.00 96 1024.5
20260506003217 11 158 0.0 0.0 0.00 0.15 0.00 96 1024.5
20260506002717 11 158 0.0 0.0 0.00 0.15 0.00 96 1024.5
20260506002217 11 158 0.0 0.0 0.00 0.15 0.00 96 1024.5
20260506001717 11 158 0.0 0.0 0.00 0.15 0.00 96 1024.5
20260506001217 11 158 0.0 0.0 0.00 0.15 0.00 95 1024.5
20260506000717 11 158 0.0 0.0 0.00 0.15 0.00 96 1024.5
20260506000219 11 158 0.0 0.0 0.00 0.15 0.00 95 1024.5
20260505235717 11 158 0.0 0.0 0.08 0.15 0.00 95 1024.5
20260505235217 11 158 0.0 0.0 0.08 0.15 0.00 95 1024.5
20260505234717 11 158 0.0 0.0 0.08 0.15 0.00 95 1024.5
20260505234217 11 158 0.0 0.0 0.08 0.15 0.00 95 1024.5
20260505233717 11 158 0.0 0.0 0.08 0.15 0.00 95 1024.5
20260505233217 11 158 0.0 0.0 0.05 0.13 0.00 95 1024.5
20260505232717 11 158 0.0 0.0 0.05 0.13 0.00 95 1024.5
20260505232217 11 158 0.0 0.0 0.00 0.08 0.00 95 1024.5
20260505231717 11 158 0.0 0.0 0.00 0.08 0.00 95 1024.5
20260505231218 11 158 0.0 0.0 0.00 0.08 0.00 95 1024.5
20260505230717 11 158 0.0 0.0 0.00 0.08 0.00 95 1024.5
20260505230217 11 158 0.0 0.0 0.00 0.08 0.00 95 1024.5
20260505225717 11 158 0.0 0.0 0.08 0.08 0.00 95 1024.5
20260505225217 11 158 0.0 0.0 0.05 0.05 0.00 94 1024.5
20260505224717 11 158 0.0 0.0 0.05 0.05 0.00 94 1024.5
20260505224217 11 158 0.0 0.0 0.05 0.05 0.00 94 1024.5
20260505223717 11 158 0.0 0.0 0.00 0.00 0.00 94 1024.5
20260505223217 11 158 0.0 0.0 0.00 0.00 0.00 94 1024.5
20260505222717 11 158 0.0 0.0 0.00 0.00 0.00 94 1024.5
20260505222217 11 158 0.0 0.0 0.00 0.00 0.00 93 1024.5
20260505221717 11 158 0.0 0.0 0.00 0.00 0.00 94 1024.5
20260505221217 11 158 0.0 0.0 0.00 0.00 0.00 93 1024.5
20260505220717 11 158 0.0 0.0 0.00 0.00 0.00 93 1024.5
20260505220217 11 158 0.0 0.0 0.00 0.00 0.00 93 1024.5
20260505215717 11 158 0.0 0.0 0.00 0.00 0.00 93 1024.5
20260505215217 11 158 0.0 0.0 0.00 0.00 0.00 93 1024.5
20260505214717 11 158 0.0 0.0 0.00 0.00 0.00 93 1024.5
20260505214217 12 158 0.0 0.0 0.00 0.00 0.00 92 1024.5
20260505213717 12 158 0.0 0.0 0.00 0.00 0.00 92 1024.5
20260505213217 12 158 0.0 0.0 0.00 0.00 0.00 92 1024.5
20260505212717 12 158 0.0 0.0 0.00 0.00 0.00 92 1024.5
20260505212217 12 158 0.0 0.0 0.00 0.00 0.00 92 1024.5
20260505211717 12 158 0.0 0.0 0.00 0.00 0.00 92 1024.5
20260505211218 12 158 0.0 0.0 0.00 0.00 0.00 92 1024.5
20260505210717 12 158 1.6 3.2 0.00 0.00 0.00 92 1024.5
20260505210217 12 158 1.6 3.2 0.00 0.00 0.00 92 1024.5
20260505205717 12 158 0.0 0.0 0.00 0.00 0.00 92 1024.5
20260505205217 12 158 0.0 0.0 0.00 0.00 0.00 92 1024.5
20260505204718 12 158 0.0 0.0 0.00 0.00 0.00 92 1024.5
20260505204217 12 158 0.0 0.0 0.00 0.00 0.00 92 1024.5
20260505203717 12 158 0.0 0.0 0.00 0.00 0.00 92 1024.5
20260505203217 12 158 0.0 0.0 0.00 0.00 0.00 92 1024.5
20260505202717 12 158 0.0 0.0 0.00 0.00 0.00 92 1024.5
20260505202217 12 158 0.0 0.0 0.00 0.00 0.00 92 1024.5
20260505201717 12 158 0.0 0.0 0.00 0.00 0.00 92 1024.5
20260505201217 12 158 0.0 0.0 0.00 0.00 0.00 92 1024.5
20260505200717 12 158 0.0 0.0 0.00 0.00 0.00 92 1024.5
20260505200217 12 158 0.0 0.0 0.00 0.00 0.00 93 1024.5
20260505195717 13 158 1.6 0.0 0.00 0.00 0.00 93 1024.5
20260505195217 13 158 0.0 0.0 0.00 0.00 0.00 93 1024.5
20260505194717 13 158 0.0 0.0 0.00 0.00 0.00 93 1024.5
20260505194217 13 158 0.0 0.0 0.00 0.00 0.00 93 1024.5
20260505193717 13 158 0.0 0.0 0.00 0.00 0.00 93 1024.5
20260505193217 13 158 0.0 0.0 0.00 0.00 0.00 93 1024.5
20260505192717 13 158 0.0 0.0 0.00 0.00 0.00 93 1024.5
20260505192217 13 158 0.0 0.0 0.00 0.00 0.00 92 1024.5
20260505191717 13 158 0.0 0.0 0.00 0.00 0.00 92 1024.5
20260505191217 13 158 0.0 0.0 0.00 0.00 0.00 92 1024.0
20260505190717 13 158 0.0 0.0 0.00 0.00 0.00 92 1024.0
20260505190217 13 158 0.0 0.0 0.00 0.00 0.00 92 1024.0
20260505185717 13 158 0.0 0.0 0.00 0.00 0.00 92 1024.0
20260505185217 13 158 0.0 0.0 0.00 0.00 0.00 92 1024.0
20260505184717 13 158 0.0 0.0 0.00 0.00 0.00 91 1024.0
20260505184217 13 158 0.0 0.0 0.00 0.00 0.00 91 1024.0
20260505183717 13 158 0.0 0.0 0.00 0.00 0.00 91 1024.0
20260505183217 13 158 0.0 0.0 0.00 0.00 0.00 91 1024.0
20260505182717 13 158 0.0 0.0 0.00 0.00 0.00 91 1024.0
20260505182217 13 158 1.6 0.0 0.00 0.00 0.00 90 1024.0
20260505181717 13 158 1.6 3.2 0.00 0.00 0.00 90 1024.0
20260505181217 13 158 0.0 0.0 0.00 0.00 0.00 90 1024.0
20260505180717 13 158 0.0 0.0 0.00 0.00 0.00 89 1024.0
20260505180217 14 158 3.2 0.0 0.00 0.00 0.00 89 1024.0
20260505175717 14 158 0.0 0.0 0.00 0.00 0.00 88 1024.0
20260505175217 14 158 3.2 3.2 0.00 0.00 0.00 88 1024.0
20260505174717 14 158 0.0 0.0 0.00 0.00 0.00 87 1024.0
20260505174217 15 158 0.0 3.2 0.00 0.00 0.00 86 1024.0
20260505173717 15 158 0.0 3.2 0.00 0.00 0.00 86 1024.0
20260505173217 15 158 1.6 0.0 0.00 0.00 0.00 85 1024.0
20260505172717 15 158 0.0 0.0 0.00 0.00 0.00 85 1024.0
20260505172217 15 158 0.0 0.0 0.00 0.00 0.00 85 1024.0
20260505171717 15 158 0.0 0.0 0.00 0.00 0.00 84 1023.6
20260505171217 15 158 0.0 0.0 0.00 0.00 0.00 84 1023.6
20260505170717 15 158 0.0 0.0 0.00 0.00 0.00 84 1023.6
20260505170217 15 158 0.0 0.0 0.00 0.00 0.00 84 1023.6
20260505165717 15 158 0.0 0.0 0.00 0.00 0.00 83 1023.6
20260505165217 15 158 0.0 0.0 0.00 0.00 0.00 83 1023.6
20260505164717 16 158 0.0 0.0 0.00 0.00 0.00 82 1023.6
20260505164217 16 158 0.0 0.0 0.00 0.00 0.00 81 1023.6
20260505163717 16 158 0.0 3.2 0.00 0.00 0.00 81 1023.6
20260505163217 16 158 1.6 0.0 0.00 0.00 0.00 80 1023.6
20260505162717 16 158 0.0 3.2 0.00 0.00 0.00 79 1023.6
20260505162217 16 158 0.0 0.0 0.00 0.00 0.00 79 1023.6
20260505161717 17 158 0.0 0.0 0.00 0.00 0.00 78 1023.6
20260505161217 17 158 1.6 3.2 0.00 0.00 0.00 78 1023.6
20260505160717 17 158 3.2 6.4 0.00 0.00 0.00 77 1023.6
20260505160217 17 248 0.0 0.0 0.00 0.00 0.00 78 1023.6
20260505153217 16 158 3.2 3.2 0.00 0.00 0.00 83 1023.6
20260505152718 16 158 0.0 0.0 0.00 0.00 0.00 83 1023.6
20260505152217 16 158 1.6 0.0 0.00 0.00 0.00 82 1023.6
20260505151717 16 158 3.2 3.2 0.00 0.00 0.00 81 1023.6
20260505151217 16 158 1.6 0.0 0.00 0.00 0.00 80 1023.6
20260505150717 16 158 0.0 0.0 0.00 0.00 0.00 80 1023.6
20260505150217 16 293 1.6 0.0 0.00 0.00 0.00 78 1023.6
20260505140217 16 293 0.0 0.0 0.00 0.00 0.00 81 1023.6
20260505130217 17 293 0.0 0.0 0.00 0.00 0.00 82 1023.6
20260505124717 15 293 1.6 0.0 0.00 0.00 0.00 82 1023.6
20260505124217 15 293 1.6 3.2 0.00 0.00 0.00 84 1024.0
20260505123717 15 293 3.2 3.2 0.00 0.00 0.00 83 1024.0
20260505123217 15 293 3.2 3.2 0.00 0.00 0.00 82 1024.0
20260505122717 15 293 1.6 0.0 0.00 0.00 0.00 85 1024.0
20260505122217 14 293 1.6 3.2 0.00 0.00 0.00 85 1024.0
20260505121717 13 293 3.2 3.2 0.00 0.00 0.00 85 1024.0
20260505121217 14 293 0.0 3.2 0.00 0.00 0.00 85 1024.0
20260505120717 14 293 3.2 3.2 0.00 0.00 0.00 85 1024.0
20260505120217 14 293 1.6 0.0 0.00 0.00 0.00 85 1024.0
20260505115717 14 293 3.2 11.3 0.00 0.00 0.00 84 1024.0
20260505115217 14 293 3.2 3.2 0.00 0.00 0.00 85 1024.0
20260505114717 14 293 3.2 3.2 0.00 0.00 0.00 85 1024.0
20260505114217 14 315 1.6 0.0 0.00 0.00 0.00 86 1024.0
20260505113717 13 315 1.6 0.0 0.00 0.00 0.00 87 1023.8
20260505113652 13 315 1.6 0.0 0.00 0.23 0.00 87 1024.0
20260505113151 13 315 1.6 0.0 0.00 0.23 0.00 86 1024.0
20260505112651 13 315 3.2 6.4 0.00 0.23 0.00 84 1024.0
20260505112151 15 315 1.6 3.2 0.00 0.23 0.00 85 1024.0
20260505111651 14 315 0.0 0.0 0.00 0.23 0.00 88 1024.0
20260505111151 14 315 0.0 0.0 0.00 0.23 0.00 88 1024.0
20260505110652 13 293 1.6 3.2 0.00 0.23 0.00 89 1024.0
20260505110151 13 293 3.2 3.2 0.00 0.23 0.00 90 1024.0
20260505102152 11 248 1.6 3.2 0.13 0.23 0.00 94 1024.5
20260505101651 11 248 1.6 3.2 0.08 0.20 0.00 94 1024.5
20260505101151 11 248 1.6 0.0 0.08 0.20 0.00 94 1024.9
20260505100651 11 248 0.0 0.0 0.05 0.15 0.00 93 1024.9
20260505100151 11 248 0.0 0.0 0.05 0.15 0.00 93 1024.9
20260505095651 11 248 0.0 0.0 0.08 0.08 0.00 93 1024.9
20260505095151 11 248 3.2 6.4 0.05 0.05 0.00 93 1024.9
20260505094652 11 248 3.2 3.2 0.05 0.05 0.00 93 1024.9
20260505094151 11 225 3.2 6.4 0.05 0.05 0.00 93 1024.9
20260505093651 11 225 3.2 3.2 0.00 0.00 0.00 93 1024.9
20260505093151 11 225 3.2 6.4 0.00 0.00 0.00 92 1024.9
20260505092651 11 248 3.2 6.4 0.00 0.00 0.00 92 1024.9
20260505092151 11 248 3.2 3.2 0.00 0.00 0.00 92 1024.9
20260505091651 11 248 0.0 3.2 0.00 0.00 0.00 91 1024.5
20260505091151 11 248 0.0 0.0 0.00 0.00 0.00 91 1024.5
20260505090652 11 248 1.6 6.4 0.00 0.00 0.00 90 1024.5
20260505090152 12 248 3.2 3.2 0.00 0.00 0.00 89 1024.5
20260505085652 12 293 3.2 3.2 0.00 0.00 0.00 89 1024.5
20260505085151 12 293 3.2 3.2 0.00 0.00 0.00 89 1024.5
20260505084652 12 293 3.2 3.2 0.00 0.00 0.00 89 1024.5
20260505084151 12 293 3.2 3.2 0.00 0.00 0.00 90 1024.5
20260505083651 12 158 0.0 0.0 0.00 0.00 0.00 90 1024.5
20260505083151 12 225 3.2 3.2 0.00 0.00 0.00 89 1024.5
20260505082651 12 315 4.8 6.4 0.00 0.00 0.00 89 1024.5
20260505082151 12 293 4.8 3.2 0.00 0.00 0.00 87 1024.5
20260505082031 12 293 3.2 6.4 0.00 0.00 0.00 88 1024.5
20260505081531 13 315 1.6 3.2 0.00 0.00 0.00 89 1024.5
20260505081031 13 338 4.8 6.4 0.00 0.00 0.00 88 1024.5
20260505080531 13 315 0.0 0.0 0.00 0.00 0.00 90 1024.5
20260505080031 13 315 1.6 3.2 0.00 0.00 0.00 89 1023.8
20260505080005 12 315 3.2 0.0 0.05 1.60 0.00 89 1024.5
20260505075504 12 315 0.0 0.0 0.05 1.60 0.00 91 1024.5
20260505075001 12 315 0.0 0.0 0.05 1.60 0.00 93 1024.5
20260505074501 12 315 1.6 0.0 0.05 1.60 0.00 93 1024.5
20260505074001 11 315 0.0 0.0 0.00 1.55 0.00 93 1024.5
20260505073501 11 315 0.0 0.0 0.00 1.55 0.00 93 1024.9
20260505073001 11 315 0.0 0.0 0.00 1.55 0.00 94 1024.9
20260505072501 11 315 0.0 0.0 0.00 1.55 0.00 94 1024.9
20260505072001 11 315 0.0 0.0 0.00 1.55 0.00 94 1024.9
20260505071501 11 315 0.0 0.0 0.00 1.55 0.00 94 1024.9
20260505071001 10 315 0.0 0.0 0.00 1.55 0.00 94 1024.9
20260505070501 10 315 0.0 0.0 0.00 1.55 0.00 94 1024.9
20260505070001 10 315 0.0 0.0 0.33 1.55 0.00 94 1024.9
20260505065501 10 315 1.6 3.2 0.33 1.55 0.00 94 1024.9
20260505065001 10 315 1.6 3.2 0.33 1.55 0.00 94 1024.9
20260505064501 10 315 1.6 3.2 0.33 1.55 0.00 94 1024.9
20260505064001 10 315 3.2 3.2 0.33 1.55 0.00 94 1024.9
20260505063501 10 315 1.6 3.2 0.33 1.55 0.00 95 1024.9
20260505063001 10 360 0.0 0.0 0.28 1.52 0.00 95 1024.9
20260505062501 10 315 1.6 3.2 0.28 1.52 0.00 95 1024.9
20260505062001 10 315 1.6 3.2 0.23 1.47 0.00 94 1024.9
20260505061501 10 315 1.6 0.0 0.15 1.40 0.00 94 1024.9
20260505061001 10 315 0.0 3.2 0.13 1.37 0.00 94 1024.9
20260505060501 10 338 1.6 0.0 0.08 1.32 0.00 93 1024.9
20260505060001 10 68 0.0 0.0 0.84 1.24 0.00 94 1024.9
20260505055501 10 68 3.2 6.4 0.76 1.17 0.00 94 1024.9
20260505055001 10 23 0.0 3.2 0.64 1.04 0.00 94 1024.9
20260505054001 10 23 3.2 3.2 0.48 0.89 0.00 94 1024.9
20260505053501 10 293 1.6 0.0 0.43 0.84 0.00 94 1024.9
20260505053001 10 293 1.6 0.0 0.36 0.76 0.00 94 1024.9
20260505052502 10 23 3.2 6.4 0.33 0.71 0.00 94 1024.9
20260505052001 10 248 1.6 3.2 0.23 0.64 0.00 94 1024.9
20260505051501 10 248 3.2 3.2 0.15 0.56 0.00 94 1024.9
20260505051001 10 293 1.6 3.2 0.13 0.51 0.00 94 1024.9
20260505050501 10 293 3.2 3.2 0.08 0.48 0.00 93 1024.9